Wetbulb
56.14 56.08 56.02 56.58 57.06 57.04 56.89 56.96 56.91 57.12 57.50 57.69 57.98 58.48 59.26 59.45 58.90 61.83 59.97 65.73 67.99 75.43 76.58 72.30 72.84 71.80 71.94 69.46 71.00 70.70 63.97 59.16 58.91 59.89 62.03 66.22 65.03 67.48 70.18 68.50 69.16 69.72 70.32 71.25 72.43
55.76 55.66 55.94 56.32 57.08 57.15 57.31 57.31 57.19 56.84 56.92 57.36 57.55 58.21 58.88 59.12 59.51 58.75 66.61 72.25 74.61 75.46 71.10 68.20 67.62 69.54 67.35 66.65 68.26 66.26 61.88 58.46 61.14 62.52 63.69 65.36 66.02 65.96 67.00 67.24 67.46 67.96 71.20 71.40 71.93
55.48 55.97 56.31 56.21 56.34 57.09 57.12 57.29 57.35 57.03 56.93 57.16 57.33 57.76 58.35 59.28 58.77 58.65 70.64 72.85 74.19 75.26 66.94 68.27 67.59 67.05 64.30 65.59 65.10 64.48 60.19 60.93 60.93 62.90 65.79 65.90 65.90 66.99 66.50 65.57 67.64 66.90 68.58 70.11 70.65
55.52 55.68 55.76 55.91 56.29 56.54 57.08 57.20 56.98 56.47 56.54 56.78 57.18 57.63 58.21 59.96 51.91 64.53 71.27 71.40 74.67 69.63 66.95 66.69 64.96 62.24 61.76 61.27 63.43 60.39 62.32 60.94 61.64 63.73 65.06 65.42 66.43 65.61 66.15 67.63 69.96 69.86 70.19 69.85 69.57
55.66 55.69 55.69 55.79 56.29 56.32 56.61 56.44 56.36 56.34 56.22 57.19 57.69 57.61 59.11 56.80 56.67 67.12 72.65 73.49 69.53 69.11 66.79 65.01 62.64 60.70 60.47 60.40 61.06 59.66 61.15 60.67 61.31 63.87 66.01 66.70 64.35 65.05 66.48 68.54 70.73 70.72 70.11 69.31 69.13
55.69 56.16 56.26 56.48 56.55 56.71 56.75 56.61 56.42 56.20 56.65 58.81 58.84 57.16 57.36 52.46 60.99 66.42 65.20 69.68 68.69 68.63 63.93 64.77 61.67 62.26 61.43 59.17 58.27 61.15 60.92 61.87 62.07 63.77 65.95 64.26 64.96 65.37 66.87 69.16 69.78 69.93 69.35 69.21 68.87
55.84 55.90 55.94 56.15 56.40 56.50 56.40 56.00 55.90 56.78 59.09 60.13 59.75 58.65 56.97 55.60 59.60 60.41 64.55 65.76 66.83 66.18 61.66 63.50 63.24 61.04 61.23 57.57 60.38 60.43 58.60 62.61 62.30 63.52 63.88 65.32 62.48 64.58 67.66 68.19 68.69 69.21 69.02 68.94 69.08
55.37 55.43 55.55 55.59 55.59 55.86 55.80 55.42 55.49 58.66 59.42 58.74 58.97 59.91 55.61 60.09 61.61 59.25 60.94 62.86 63.81 63.55 62.89 63.18 63.46 60.95 59.95 60.19 58.67 57.63 59.35 58.31 63.13 63.41 64.56 64.78 59.20 64.24 67.84 67.22 67.18 68.49 68.75 68.47 69.12
55.18 55.15 55.19 55.17 55.28 54.95 54.66 54.81 55.89 59.92 58.57 58.34 60.40 60.08 55.49 58.46 56.35 58.97 59.99 58.73 60.18 61.71 62.27 62.11 61.67 59.19 58.39 55.70 55.67 57.81 54.85 56.76 60.29 63.60 64.13 64.91 60.60 66.02 67.57 67.14 65.99 68.27 69.04 68.81 69.42
54.97 54.96 54.96 54.98 54.72 54.31 54.33 55.21 58.30 58.48 59.61 62.35 62.07 55.82 57.10 55.47 58.14 58.89 59.71 59.81 59.03 58.94 59.07 58.77 58.23 56.11 55.10 54.70 51.81 54.44 55.14 59.00 58.81 61.91 63.69 64.23 62.89 67.09 68.02 67.39 66.25 67.31 69.04 69.66 69.49
54.94 54.90 54.72 54.63 54.33 53.90 55.16 55.11 53.65 56.16 53.59 48.40 49.64 53.45 54.31 59.28 59.43 58.30 58.87 58.77 59.85 57.44 53.45 56.43 53.37 51.35 53.00 55.93 57.31 57.41 56.73 55.70 60.88 62.50 62.64 62.24 63.25 65.74 67.66 68.01 67.15 66.48 68.31 69.48 70.03
54.76 54.61 54.41 54.12 53.69 53.53 55.45 49.87 49.48 49.82 45.72 50.92 50.89 50.86 52.21 54.78 52.15 56.50 59.48 55.05 54.92 52.93 54.50 53.32 51.25 54.55 55.17 56.18 56.35 56.98 56.68 56.33 59.70 62.21 62.28 61.73 61.77 65.96 67.80 67.29 68.22 67.68 66.78 68.71 70.07
54.49 54.26 53.83 53.16 52.97 56.19 52.72 51.85 54.92 54.03 46.81 49.85 52.37 51.30 51.49 52.08 50.38 53.86 57.77 55.15 53.18 51.47 52.12 50.58 53.34 55.68 54.68 54.24 54.55 56.14 56.19 56.78 57.16 60.89 62.03 61.22 59.68 61.94 65.90 68.37 68.45 69.05 69.10 68.14 69.27
54.33 53.94 52.99 52.34 51.77 53.88 53.11 54.26 55.40 54.26 44.89 48.45 50.81 52.69 53.62 52.82 49.96 55.65 58.86 55.55 53.91 51.10 51.78 51.30 54.49 54.26 53.73 53.07 55.25 53.75 57.97 58.00 57.08 56.75 55.24 60.28 54.12 60.40 62.59 64.70 67.43 68.20 69.11 68.50 68.37
53.90 53.32 52.31 51.31 53.18 52.38 51.86 54.47 55.08 53.80 37.13 48.14 50.88 56.13 54.63 51.27 52.68 52.48 58.56 56.02 51.96 51.79 52.18 50.28 51.39 52.78 52.42 53.46 55.68 54.95 58.21 57.64 57.69 57.73 57.73 57.26 54.98 57.50 61.90 61.81 64.75 67.42 68.81 69.73 69.12
53.30 52.72 52.21 54.83 55.09 54.26 53.75 53.86 53.47 44.18 37.04 44.44 48.87 49.48 49.89 51.89 51.86 54.83 54.44 57.25 55.90 53.00 52.97 52.03 55.20 54.62 54.36 55.50 55.91 57.21 56.95 57.54 57.31 55.50 51.44 55.61 56.42 56.36 58.64 61.97 64.07 66.29 68.59 69.85 70.46
52.46 51.34 52.01 53.71 50.64 54.09 53.73 51.36 42.68 38.47 46.14 42.84 44.94 47.07 47.29 47.84 50.29 51.21 52.06 51.54 50.20 48.08 48.75 50.59 51.29 54.48 55.58 53.34 56.04 55.17 54.12 50.53 49.41 49.41 49.45 56.71 55.92 57.09 58.73 64.10 63.73 65.21 67.76 69.80 70.94
51.38 50.43 54.42 53.21 54.42 53.97 51.80 45.71 37.13 42.65 43.40 46.54 45.35 45.30 43.82 45.66 48.19 49.31 49.98 49.95 52.73 52.37 50.27 47.11 45.10 51.50 54.59 54.02 53.02 53.42 53.64 50.88 46.50 47.35 50.22 56.39 53.23 56.80 62.23 63.57 63.86 64.20 67.02 69.29 70.48
50.10 55.38 53.96 54.81 53.33 52.62 47.51 39.91 41.20 43.80 44.01 43.20 44.66 42.67 43.30 44.75 45.44 49.04 49.72 49.88 52.46 53.50 49.63 48.60 47.55 52.59 54.35 55.30 55.11 53.12 52.16 56.62 52.71 54.08 51.04 53.38 56.24 60.05 61.76 62.83 63.65 63.40 65.30 67.44 69.66
51.61 52.81 53.42 52.31 52.43 49.40 43.98 39.77 43.15 45.71 44.25 44.00 40.24 43.49 40.97 43.35 45.35 47.21 48.07 51.75 52.04 54.27 55.50 53.34 48.60 52.26 52.91 55.07 55.11 54.44 56.33 51.43 53.62 48.89 47.73 51.32 53.55 54.18 58.99 61.21 62.38 62.54 63.72 65.07 68.58
51.76 48.14 51.99 52.37 52.23 48.04 41.21 42.55 43.57 46.46 46.03 42.88 42.29 41.74 42.56 42.50 44.11 45.94 46.71 50.90 53.43 53.96 55.36 53.91 52.28 51.09 52.76 51.59 51.42 51.82 52.55 54.20 54.61 53.79 49.77 48.70 52.23 60.17 59.66 62.25 61.93 62.96 63.85 64.92 66.22
50.66 44.63 51.91 52.34 44.33 46.78 41.57 41.69 41.78 42.34 44.23 43.14 44.02 42.58 42.42 43.28 43.33 43.74 44.99 49.32 52.12 52.32 52.13 54.54 52.29 49.56 50.05 54.12 55.22 54.27 53.25 54.68 52.46 52.40 53.68 52.93 53.10 60.26 62.62 62.96 63.27 63.55 64.45 64.90 67.05
47.58 47.67 54.47 50.31 40.44 40.61 42.80 41.42 42.38 40.94 41.51 40.91 40.57 43.36 45.02 43.34 41.12 44.22 44.99 49.65 50.84 50.40 52.20 54.93 51.64 48.29 49.72 51.56 54.04 52.05 53.20 54.63 55.34 55.40 53.52 50.87 52.11 61.13 62.42 62.78 63.94 63.19 63.41 66.85 69.34
47.86 43.08 48.64 48.34 46.67 41.32 40.16 39.75 38.70 41.99 41.10 42.65 42.41 43.27 43.93 43.33 45.41 43.06 44.37 48.40 50.04 50.04 55.49 53.84 51.91 50.50 47.45 50.09 52.19 50.63 51.86 53.26 54.11 52.95 53.38 54.00 55.52 59.01 60.38 61.74 62.78 63.43 64.00 67.13 68.97
46.90 42.51 45.02 40.57 41.62 41.57 41.92 40.64 38.25 36.30 40.03 42.20 40.79 41.25 42.71 41.86 43.44 43.39 44.50 47.71 48.67 54.38 51.73 52.36 49.85 52.38 52.21 53.05 52.83 51.76 51.32 52.30 51.62 54.24 52.78 55.39 55.92 58.67 61.09 61.51 62.26 64.36 65.33 66.18 68.81
43.23 42.02 44.64 43.06 43.44 41.07 41.28 38.37 37.01 38.11 37.17 37.77 35.23 36.46 41.64 41.59 44.75 43.41 45.24 45.98 46.60 51.16 50.33 52.96 50.14 52.89 50.93 52.39 52.78 50.74 51.84 52.28 52.52 53.24 54.71 55.70 56.74 61.22 62.22 62.45 62.49 63.99 64.65 65.33 66.65
47.00 48.36 42.82 41.85 42.89 40.11 38.92 39.28 38.78 40.96 40.76 40.38 39.86 36.53 38.11 43.82 46.40 48.16 49.25 49.18 49.54 48.31 47.93 51.06 51.69 51.06 48.76 51.96 51.88 49.04 51.46 52.17 53.19 54.11 54.53 53.20 57.62 60.76 60.98 61.96 62.77 63.41 63.35 62.51 63.82
MSLP
1019.75 1019.24 1018.70 1018.14 1017.60 1017.06 1016.56 1016.01 1015.50 1015.00 1014.46 1013.86 1013.38 1012.92 1012.37 1011.92 1010.87 1009.76 1007.15 1005.59 1005.72 1006.37 1006.68 1005.67 1004.97 1004.44 1004.03 1003.15 1002.15 1001.18 999.58 997.45 997.59 998.05 999.14 999.89 1000.54 1002.10 1002.62 1003.69 1004.46 1004.65 1005.34 1007.30 1008.96
1019.84 1019.29 1018.74 1018.14 1017.53 1016.92 1016.30 1015.76 1015.22 1014.80 1014.32 1013.77 1013.21 1012.73 1012.17 1011.78 1009.92 1006.82 1004.71 1005.00 1005.62 1006.13 1005.93 1004.57 1004.02 1003.66 1002.90 1002.02 1001.15 1000.30 998.34 997.66 998.10 998.32 998.37 999.67 1000.47 1002.05 1002.80 1003.78 1004.52 1005.28 1005.75 1007.75 1009.00
1019.99 1019.36 1018.68 1018.02 1017.36 1016.74 1016.06 1015.39 1014.85 1014.35 1013.96 1013.48 1012.98 1012.49 1012.02 1011.52 1008.27 1003.85 1004.68 1005.02 1005.34 1005.75 1004.59 1003.80 1003.26 1002.92 1002.12 1001.01 1000.24 999.24 998.18 997.98 998.18 998.73 998.45 999.29 1000.53 1001.72 1002.14 1003.17 1004.31 1005.14 1006.52 1007.89 1008.85
1020.15 1019.51 1018.76 1017.99 1017.22 1016.56 1015.82 1015.06 1014.42 1013.93 1013.51 1013.09 1012.62 1012.26 1011.87 1010.50 1006.03 1004.33 1004.93 1005.13 1005.33 1005.08 1004.26 1003.31 1002.78 1002.23 1001.58 1000.33 999.79 999.22 998.30 998.36 998.14 998.85 998.76 999.08 1000.40 1001.29 1001.88 1002.25 1003.99 1005.18 1006.66 1007.88 1008.59
1020.18 1019.49 1018.76 1018.01 1017.18 1016.38 1015.54 1014.77 1014.03 1013.42 1013.00 1012.61 1012.26 1012.04 1011.39 1008.08 1004.64 1004.46 1005.04 1005.38 1005.34 1004.92 1003.58 1002.84 1002.37 1001.82 1000.80 999.62 999.17 999.02 998.26 998.25 998.28 998.82 998.78 999.50 1000.45 1001.26 1002.17 1002.96 1003.96 1005.30 1006.65 1007.59 1008.28
1020.31 1019.51 1018.67 1017.76 1016.88 1016.04 1015.30 1014.38 1013.61 1012.90 1012.38 1012.03 1011.86 1011.91 1010.10 1006.07 1002.78 1003.77 1003.90 1004.74 1004.16 1003.82 1003.23 1002.60 1002.00 1001.42 1000.36 999.70 999.06 998.30 998.34 997.98 998.09 998.72 999.32 999.66 1000.47 1001.20 1002.48 1003.16 1004.06 1005.36 1006.43 1007.28 1007.84
1020.35 1019.47 1018.52 1017.65 1016.78 1015.68 1014.84 1014.05 1013.19 1012.44 1011.84 1011.32 1011.42 1011.13 1008.06 1004.31 1003.20 1003.18 1003.52 1003.60 1003.34 1003.24 1002.50 1002.34 1001.95 1001.41 1000.78 1000.00 999.29 998.72 998.34 997.73 997.94 998.65 999.36 999.46 1000.31 1000.49 1002.26 1003.17 1004.09 1005.16 1006.10 1006.92 1007.49
1020.38 1019.53 1018.52 1017.37 1016.33 1015.36 1014.46 1013.56 1012.86 1012.13 1011.62 1011.21 1011.20 1010.02 1005.80 1003.07 1003.10 1003.32 1003.08 1002.98 1003.11 1003.10 1002.84 1002.15 1002.18 1001.64 1000.65 999.86 999.28 998.62 997.86 996.83 997.49 998.45 999.03 999.41 999.58 1000.62 1002.12 1002.90 1003.90 1004.86 1005.66 1006.59 1007.21
1020.34 1019.46 1018.54 1017.40 1016.27 1014.96 1013.83 1013.07 1012.37 1011.87 1011.53 1011.34 1010.51 1008.42 1004.31 1004.03 1003.41 1002.92 1002.68 1002.21 1002.43 1002.60 1002.65 1002.41 1002.10 1001.46 1000.86 1000.02 998.80 997.74 996.59 996.20 997.22 997.94 998.63 999.48 999.26 1000.28 1001.58 1002.29 1003.45 1004.50 1005.26 1006.11 1006.83
1020.54 1019.59 1018.51 1017.45 1016.24 1014.80 1013.38 1011.85 1011.34 1011.68 1011.09 1009.84 1008.66 1007.26 1003.99 1002.34 1001.98 1002.14 1002.37 1002.12 1001.63 1001.96 1002.14 1002.24 1001.54 1000.97 1000.13 999.05 997.20 996.19 996.00 995.77 997.15 997.46 998.18 998.63 998.68 1000.13 1001.07 1001.63 1002.81 1003.80 1004.72 1005.50 1006.13
1020.52 1019.60 1018.57 1017.30 1016.19 1014.65 1013.28 1009.57 1010.50 1009.85 1008.12 1007.35 1005.77 1004.16 1003.16 1002.52 1002.51 1002.14 1001.79 1001.66 1001.30 1001.32 1000.89 1001.12 1000.58 999.27 998.49 998.02 997.14 995.70 995.32 995.06 995.10 996.26 997.24 997.41 997.83 999.27 1000.50 1000.91 1001.76 1002.81 1003.89 1004.71 1005.36
1020.34 1019.38 1018.39 1017.12 1015.98 1014.74 1013.01 1011.48 1012.43 1012.62 1009.17 1006.17 1004.56 1003.72 1003.13 1002.66 1002.26 1001.41 1001.71 1001.29 1000.74 1000.10 1000.27 999.94 998.75 998.42 998.26 997.68 997.01 995.60 994.69 994.55 994.88 995.59 996.59 996.59 996.85 997.62 999.25 1000.08 1000.45 1001.55 1002.71 1003.65 1004.56
1020.30 1019.32 1018.30 1016.84 1015.68 1014.07 1012.62 1012.45 1012.24 1011.93 1009.42 1003.65 1002.24 1001.66 1001.68 1002.20 1001.43 1000.77 1000.94 1000.76 1000.15 999.70 999.10 998.11 997.86 998.12 997.55 997.05 996.44 995.61 994.67 994.12 994.53 995.92 996.17 995.92 996.03 996.58 997.57 999.17 999.66 1000.21 1001.38 1002.54 1003.40
1020.13 1019.12 1018.23 1016.62 1015.80 1012.99 1011.67 1012.10 1011.88 1011.73 1008.31 1002.25 1001.43 1001.24 1001.25 1001.00 1000.29 1000.46 999.84 1000.07 999.42 998.90 998.49 997.87 997.13 997.00 996.86 996.32 996.08 995.22 995.15 994.51 994.40 996.13 995.77 996.02 994.88 995.42 996.31 997.49 998.60 999.11 999.92 1001.15 1002.21
1019.88 1019.06 1018.15 1017.84 1015.69 1012.63 1012.72 1012.01 1011.82 1011.20 1005.93 1001.36 1000.86 1001.32 1000.74 1000.84 998.94 998.72 999.08 999.39 998.40 997.98 997.85 996.45 996.46 996.09 995.94 995.62 995.82 995.12 995.16 995.13 994.55 994.64 994.93 994.60 994.89 993.68 994.83 995.78 996.87 997.69 998.51 999.65 1000.86
1019.61 1018.80 1018.13 1014.98 1014.16 1012.88 1012.65 1011.95 1011.29 1008.92 1003.34 1000.63 1000.62 1000.47 1000.20 999.50 999.34 998.24 998.66 998.98 998.37 997.47 997.16 996.12 996.05 995.74 995.34 995.69 995.85 995.97 995.13 995.03 995.06 994.75 993.91 994.15 994.33 993.50 995.54 994.09 995.00 995.95 997.22 998.38 999.43
1019.24 1018.23 1017.92 1016.20 1013.70 1013.26 1012.52 1011.25 1009.08 1005.58 1002.00 1000.88 1000.21 1000.63 1000.17 999.70 998.58 998.68 998.08 997.90 997.28 996.83 995.96 995.86 995.04 995.30 994.98 995.32 995.50 995.64 994.86 994.03 994.36 994.04 993.21 993.28 993.60 992.72 993.48 992.69 993.54 994.12 995.76 997.10 998.27
1018.84 1017.30 1015.98 1014.91 1013.84 1013.26 1012.19 1010.50 1007.46 1004.36 1002.54 1001.44 1001.39 1001.22 1000.77 1000.13 998.97 998.52 997.89 997.03 997.10 996.29 995.03 994.44 994.28 994.03 994.36 994.54 994.48 994.58 994.24 992.89 993.12 993.11 992.80 992.83 992.29 992.16 993.50 993.59 993.42 993.90 994.42 995.93 997.14
1018.49 1014.80 1013.84 1013.66 1013.60 1013.20 1011.72 1008.96 1006.13 1004.76 1004.09 1003.78 1003.23 1002.41 1000.88 999.89 999.46 998.28 997.05 996.45 996.14 995.90 994.64 993.42 993.33 993.90 993.93 994.54 994.49 994.03 993.58 993.48 992.94 992.95 992.31 991.71 992.24 992.02 992.03 992.52 992.65 993.40 993.90 994.56 995.85
1018.33 1014.83 1013.19 1013.54 1013.25 1012.52 1011.10 1008.72 1006.99 1006.31 1006.50 1006.32 1005.27 1003.68 1002.06 1000.39 999.52 999.14 997.70 996.32 995.71 995.56 995.09 993.06 992.81 992.71 993.29 994.13 994.11 993.20 994.08 993.33 992.38 991.99 991.34 990.92 990.97 991.41 991.92 992.30 992.62 993.01 993.45 994.10 994.99
1017.55 1013.97 1013.00 1013.21 1012.62 1011.41 1009.40 1007.88 1008.13 1008.51 1009.15 1008.60 1007.03 1005.61 1003.95 1002.34 1000.74 999.71 998.35 997.00 995.48 995.24 995.26 993.81 992.64 992.07 992.25 992.32 992.54 993.12 992.37 992.67 992.42 991.72 991.31 990.44 989.89 989.87 990.95 991.71 992.25 992.44 992.73 993.23 994.26
1016.78 1013.64 1013.00 1013.30 1011.67 1009.94 1009.66 1010.10 1010.95 1010.46 1010.34 1009.72 1008.99 1007.71 1006.16 1004.28 1002.38 1001.23 999.78 998.11 997.84 996.90 994.71 994.08 992.91 991.58 990.83 992.13 992.79 992.52 992.34 992.50 991.84 991.58 991.02 990.76 989.24 989.24 990.00 990.89 991.68 991.82 992.46 993.20 993.71
1016.45 1014.11 1013.09 1012.85 1011.04 1010.65 1011.02 1011.28 1011.24 1011.00 1010.62 1010.24 1009.30 1008.46 1007.15 1005.56 1004.11 1002.56 1001.04 999.62 999.28 998.43 996.94 995.16 993.24 991.55 990.69 991.59 992.00 991.62 991.58 991.76 992.15 992.06 990.81 990.59 990.75 989.64 989.84 990.62 991.56 992.11 993.04 993.90 993.76
1016.86 1013.80 1012.40 1012.75 1012.46 1012.34 1011.90 1011.73 1011.65 1011.78 1012.31 1011.93 1010.18 1009.12 1007.26 1005.56 1004.50 1003.32 1001.54 1000.16 999.87 999.41 998.88 998.06 994.33 991.67 990.06 989.99 991.04 991.24 990.85 991.34 991.25 990.89 990.52 990.13 990.47 991.43 991.10 990.84 991.63 992.47 993.39 993.82 993.84
1017.77 1015.54 1015.17 1013.57 1013.15 1013.26 1012.87 1012.34 1012.27 1013.36 1013.55 1013.14 1011.85 1010.07 1008.08 1006.13 1004.64 1003.31 1002.53 1000.71 1000.32 999.53 999.08 997.64 995.03 992.96 991.27 990.07 990.19 990.75 990.88 990.79 990.74 990.44 990.20 989.80 989.74 991.16 991.25 991.50 991.74 992.43 993.42 993.93 994.58
1018.77 1017.80 1016.59 1015.36 1014.17 1013.58 1012.35 1012.74 1013.29 1013.73 1014.78 1013.63 1013.54 1013.22 1010.64 1007.40 1004.73 1003.43 1002.64 1001.67 1000.54 999.52 999.35 997.80 995.68 993.91 991.79 990.56 989.75 989.76 990.42 990.46 990.56 990.54 990.65 990.20 989.52 990.43 991.61 991.82 992.30 992.85 993.54 993.92 994.39
1020.29 1019.61 1018.94 1016.24 1013.78 1012.64 1012.76 1012.70 1012.81 1013.21 1013.93 1014.16 1013.61 1013.13 1011.64 1008.11 1006.44 1004.95 1004.03 1003.08 1001.71 1001.37 1000.46 998.33 996.08 994.55 992.20 990.75 989.51 989.30 989.30 989.86 990.35 990.80 990.58 990.20 990.18 990.20 990.59 991.49 992.31 992.83 993.16 993.69 994.08
Wind_Speed
22 22 22 21 21 21 22 22 22 21 20 21 20 19 18 18 21 11 13 3 6 18 10 13 13 13 14 15 14 17 14 3 6 4 7 13 12 2 8 10 8 4 19 25 25
23 23 23 23 22 22 22 22 22 21 21 20 19 18 18 16 17 21 19 13 18 18 17 17 16 15 13 13 10 14 13 7 8 8 6 10 11 10 11 12 11 8 24 26 24
23 23 24 25 25 23 23 23 22 22 20 19 19 18 17 17 15 11 6 11 18 19 20 16 15 14 16 15 12 15 12 8 4 1 2 14 13 8 11 11 16 16 23 25 24
23 24 25 26 26 26 25 25 23 23 21 20 18 16 15 12 7 10 6 10 15 21 21 16 16 16 16 16 15 14 10 2 6 6 3 10 15 9 8 12 17 18 23 23 23
24 25 25 26 26 27 27 26 24 23 22 18 15 12 10 10 18 14 12 9 15 19 20 18 16 17 19 13 11 12 12 2 7 5 6 10 8 13 11 7 18 19 22 23 21
24 24 25 26 26 26 25 25 24 23 20 16 9 6 10 16 5 17 12 14 15 17 16 17 14 15 16 16 11 4 5 5 6 10 6 11 12 12 13 13 17 19 22 22 22
24 26 26 26 27 28 26 24 23 20 17 12 8 8 12 18 2 6 14 16 15 15 13 15 18 12 14 15 15 11 13 9 11 12 12 10 12 5 13 15 17 18 21 21 20
24 25 27 29 29 29 27 25 21 15 9 3 8 11 10 2 8 9 13 18 15 14 16 12 14 15 20 14 8 15 16 12 15 13 12 10 14 16 15 15 16 18 19 19 20
26 26 27 29 30 31 29 22 18 10 5 6 10 12 12 3 10 14 15 16 18 16 16 11 14 17 17 16 15 16 16 13 15 16 13 9 8 17 15 15 15 17 19 19 19
24 26 27 29 29 31 30 26 6 7 11 11 9 9 8 3 1 7 18 17 16 19 16 14 13 16 17 16 17 19 21 22 17 15 15 13 10 13 13 14 15 17 18 19 20
24 25 26 29 29 30 21 8 5 9 9 13 19 19 16 9 6 11 15 19 18 18 20 21 18 21 25 23 20 21 19 11 18 23 17 16 11 16 14 13 16 16 18 19 20
25 26 27 29 29 28 16 11 8 7 16 20 25 25 22 18 9 14 16 20 17 22 23 19 23 23 23 22 24 27 19 17 14 21 16 15 13 21 18 14 15 16 18 20 21
25 26 28 31 30 16 5 10 8 8 10 18 8 12 14 22 20 18 20 25 24 25 26 25 24 24 21 23 24 25 19 17 16 15 16 14 17 15 20 17 14 15 17 19 21
25 26 26 31 10 9 1 12 9 5 9 10 7 5 7 10 14 24 21 25 24 27 25 25 25 26 25 26 23 25 21 19 17 12 14 18 12 18 17 19 17 17 18 20 21
25 25 26 18 13 7 11 12 10 7 8 8 7 4 4 10 16 25 22 22 27 22 25 25 23 26 27 24 25 22 23 23 19 19 22 23 16 14 23 20 19 19 20 21 22
25 26 25 3 12 8 14 13 7 10 10 4 5 1 7 8 11 6 25 24 22 23 25 27 24 24 20 24 22 22 24 25 17 14 17 10 19 12 13 19 19 20 19 21 22
27 28 20 10 8 13 12 10 10 11 4 4 1 2 9 13 11 18 20 26 25 23 23 26 29 25 23 23 24 27 24 14 15 17 16 21 24 13 15 18 17 21 20 20 21
28 31 6 7 9 11 9 11 15 10 13 6 8 11 16 15 15 15 23 24 30 25 17 21 28 31 17 24 23 28 26 16 21 18 16 14 18 15 22 8 6 6 17 19 21
30 8 4 3 9 8 10 11 13 13 9 12 15 17 19 16 16 17 21 24 28 31 28 22 26 28 26 23 26 26 27 25 21 21 18 16 12 11 8 14 13 10 10 17 20
12 12 2 7 11 8 11 15 19 14 11 12 17 13 16 17 6 14 18 16 24 31 29 22 17 28 27 23 27 28 23 26 21 22 21 19 22 14 16 11 13 15 13 12 14
10 7 8 11 10 9 10 10 11 14 14 10 17 21 19 21 15 16 9 17 20 27 32 32 20 23 25 28 24 24 24 26 24 21 16 16 14 16 22 19 18 15 17 16 14
7 7 8 9 9 4 6 8 10 17 16 18 21 22 23 21 20 20 20 21 12 18 19 32 23 17 29 26 25 26 29 29 19 25 17 14 11 14 14 21 18 16 10 6 10
8 8 2 9 7 10 10 12 13 15 14 18 22 23 23 23 22 17 24 23 14 15 10 11 28 18 22 25 25 29 30 28 28 24 24 13 14 7 17 17 14 9 9 3 7
7 5 1 3 4 7 11 13 12 10 12 21 22 23 24 22 20 21 25 17 7 15 13 11 20 25 18 22 24 30 27 31 27 23 22 20 13 15 8 11 14 9 9 9 2
4 4 6 7 9 11 12 13 12 10 9 17 21 25 23 21 18 22 26 20 13 11 13 14 17 22 27 20 25 28 30 28 32 28 29 23 25 14 15 10 6 13 9 9 7
5 5 8 12 9 11 11 3 7 11 3 12 4 15 21 21 20 17 22 23 17 9 9 17 16 22 24 26 23 30 30 30 29 27 28 32 22 20 18 14 9 9 11 9 10
3 6 5 10 15 7 5 8 11 8 6 8 12 8 20 15 13 15 14 14 13 9 13 16 14 19 20 26 21 24 29 28 23 29 25 27 25 17 21 18 13 14 7 2 0
Wind_Direction
358 355 351 347 343 339 336 333 332 330 326 321 320 317 313 314 302 237 250 272 169 165 221 191 212 221 232 245 245 275 275 260 64 343 142 125 109 120 45 119 151 167 136 142 147
355 351 347 344 341 337 332 329 327 325 322 319 316 314 312 320 290 268 251 142 144 169 201 202 204 211 223 233 235 250 277 23 25 17 115 126 123 119 165 139 137 143 120 138 153
352 348 344 341 339 336 331 327 324 322 319 315 311 309 309 312 272 273 123 143 158 181 222 214 221 217 236 243 223 257 279 46 68 69 302 135 115 147 129 171 149 146 141 150 159
350 346 342 339 336 334 330 327 323 318 315 311 305 303 307 273 275 66 91 165 170 197 229 213 223 222 237 235 226 248 229 309 39 150 158 136 113 133 183 134 146 147 153 158 167
347 343 339 336 332 330 328 324 319 314 312 306 297 292 280 230 251 123 129 148 178 207 219 215 220 231 236 245 227 237 267 280 160 167 135 112 155 117 102 139 142 144 160 166 173
344 339 336 334 331 328 326 322 316 312 309 300 282 264 242 256 334 139 168 171 179 206 217 220 224 227 247 269 251 258 274 288 176 139 139 186 123 177 113 134 145 152 166 173 176
343 339 335 332 331 327 326 321 317 312 307 297 229 228 252 245 84 229 207 197 203 211 219 220 233 241 237 267 241 262 253 179 176 156 147 147 151 145 135 147 150 164 169 175 179
342 339 335 331 331 327 324 318 317 309 316 304 192 219 260 162 280 199 217 222 219 231 246 249 231 245 253 274 260 240 240 203 150 167 150 235 147 125 149 151 161 167 170 176 182
340 337 335 330 330 325 319 311 299 289 270 191 213 232 261 140 225 225 222 216 206 217 223 242 228 228 231 238 241 210 224 222 160 186 144 202 197 128 162 154 163 173 173 180 183
337 334 333 329 328 322 317 298 280 234 217 219 258 251 243 270 346 245 209 236 198 201 199 217 214 218 231 212 229 211 227 150 213 178 163 192 139 138 179 164 167 180 180 185 187
335 333 332 327 326 318 322 303 266 190 268 291 287 275 290 264 233 225 204 215 195 195 199 201 208 210 211 223 233 234 212 239 183 163 197 185 180 153 176 188 171 179 184 190 195
335 334 331 325 323 314 299 19 36 327 298 279 264 261 263 269 275 244 184 200 200 197 202 191 218 219 223 211 231 247 247 216 198 155 202 194 196 162 169 199 188 182 184 194 195
333 332 330 322 320 291 358 25 331 307 262 293 267 248 237 223 236 244 186 202 203 210 203 219 210 220 218 229 219 234 243 218 204 166 192 241 200 183 169 187 210 193 184 194 195
333 331 329 326 291 332 350 355 329 329 276 157 154 105 193 234 240 224 193 205 205 215 217 219 225 204 226 220 216 223 230 257 219 148 247 215 241 188 195 179 199 204 190 192 196
332 329 325 324 309 324 334 318 323 247 278 87 104 71 174 224 330 184 215 210 225 208 216 216 217 222 209 218 220 229 210 237 245 196 221 193 226 204 188 182 192 206 197 195 193
327 324 329 246 245 346 318 312 258 234 247 147 127 211 262 217 228 249 202 211 220 228 225 235 212 224 219 218 216 228 238 211 241 241 235 159 255 184 211 188 190 190 197 199 193
325 317 315 306 329 318 309 274 240 243 95 292 20 320 308 291 248 216 202 202 216 217 219 218 232 215 230 215 212 222 223 210 208 224 235 219 211 230 351 169 197 182 180 196 198
322 308 246 271 309 319 290 252 250 285 285 305 278 308 287 289 270 254 234 213 215 218 212 212 210 220 205 218 211 217 221 228 199 213 221 227 218 235 151 222 158 195 172 182 195
313 295 246 17 314 301 275 247 247 270 356 329 321 285 270 250 256 273 226 230 214 221 229 203 224 201 204 214 229 199 221 228 230 217 230 209 206 263 206 224 186 177 186 178 186
314 290 221 324 317 279 259 264 292 333 331 318 289 290 287 286 189 247 251 226 227 216 235 244 212 220 195 215 219 235 207 218 230 225 219 222 189 211 216 190 190 197 177 175 186
268 287 78 336 288 238 250 306 352 345 356 299 304 296 282 286 290 272 291 251 218 227 221 240 246 210 189 203 202 208 211 217 234 237 230 232 216 186 192 189 197 210 189 173 190
293 292 59 319 275 182 281 12 319 295 293 286 280 270 272 284 276 262 261 267 1 315 252 226 244 234 200 198 216 214 218 206 229 228 243 253 225 195 156 180 191 203 90 44 290
300 291 174 300 305 344 341 307 301 291 288 276 267 265 262 261 258 265 272 277 298 301 7 265 232 226 219 191 207 223 209 222 213 235 237 211 253 99 161 169 165 151 98 70 239
290 295 47 261 310 313 321 306 312 319 332 301 296 264 259 250 238 248 264 236 267 288 346 305 261 231 218 201 197 210 212 211 222 219 227 221 151 203 181 188 149 153 118 75 190
280 326 53 312 333 327 295 300 333 337 310 294 282 256 256 249 238 235 243 268 269 277 267 253 252 241 238 224 207 201 219 210 221 220 225 218 226 179 168 201 195 153 123 114 114
314 331 325 294 318 285 278 331 279 279 290 290 266 310 312 278 246 221 236 236 249 271 312 270 245 240 228 239 210 206 203 223 216 225 222 237 222 204 227 171 182 133 164 151 132
350 316 291 281 274 280 325 309 302 350 264 251 285 278 283 279 346 318 307 302 313 311 292 289 233 222 234 224 217 208 207 212 212 219 224 225 240 224 205 203 170 214 200 322 219